Ithaca, NY

4:12 AM EST on February 28, 2017 (GMT -0500)
Tompkins County

Weather History for KITH - April, 2013

Change the Weather History Date:

Friday, April 19, 2013

  Actual Average Record
Temperature  
Mean Temperature 56 °F -  
Max Temperature 72 °F 56 °F 85 °F (1941)
Min Temperature 41 °F 34 °F 15 °F (2001)
Degree Days  
Heating Degree Days 8    
Growing Degree Days 6 (Base 50)    
Moisture  
Dew Point 50 °F    
Average Humidity 77    
Maximum Humidity 93    
Minimum Humidity 57    
Precipitation  
Precipitation 0.39 in - - ()
Sea Level Pressure  
Sea Level Pressure 29.71 in    
Wind  
Wind Speed 15 mph (SSW)    
Max Wind Speed 29 mph    
Max Gust Speed 41 mph    
Visibility 10 miles    
Events Rain    
Averages and records for this station are not official NWS values.
T = Trace of Precipitation, MM = Missing Value Source: NWS Daily Summary

Daily Weather History Graph

Daily Weather History Graph

Search for Another Location

Airport or City:

Trip Planner

Search our weather history database for the weather conditions in past years. The results will help you decide how hot, cold, wet, or windy it might be!

Date:

Astronomy

Apr. 19, 2013 Rise Set
Actual Time 6:18 AM EDT 7:52 PM EDT
Civil Twilight 5:48 AM EDT 8:22 PM EDT
Nautical Twilight 5:12 AM EDT 8:58 PM EDT
Astronomical Twilight 4:34 AM EDT 9:36 PM EDT
Moon 1:27 PM EDT (4/19) 2:40 AM EDT (4/19)
Length of Visible Light 14h 33m
Length of Day
13h 34m
First Quarter, 61% of the Moon is Illuminated
Apr 19
First Quarter
Apr 25
Full
May 2
Last Quarter
May 9
New
May 18
First Quarter

Hourly Weather History & Observations

Time (EDT) Temp. Windchill Dew Point Humidity Pressure Visibility Wind Dir Wind Speed Gust Speed Precip Events Conditions
12:56 AM 59.0 °F - 52.9 °F 80% 29.88 in 10.0 mi South 16.1 mph - N/A   Mostly Cloudy
1:31 AM 59.0 °F - 53.6 °F 82% 29.87 in 10.0 mi South 17.3 mph 24.2 mph N/A   Scattered Clouds
1:46 AM 59.0 °F - 53.6 °F 82% 29.87 in 10.0 mi South 19.6 mph 23.0 mph N/A   Mostly Cloudy
1:56 AM 59.0 °F - 52.9 °F 80% 29.85 in 10.0 mi South 18.4 mph 25.3 mph N/A   Scattered Clouds
2:56 AM 59.0 °F - 52.9 °F 80% 29.82 in 10.0 mi South 16.1 mph 24.2 mph N/A   Clear
3:34 AM 59.0 °F - 53.6 °F 82% 29.81 in 10.0 mi South 16.1 mph 23.0 mph N/A   Mostly Cloudy
3:56 AM 59.9 °F - 52.9 °F 78% 29.79 in 10.0 mi South 17.3 mph - N/A   Mostly Cloudy
4:56 AM 61.0 °F - 54.0 °F 78% 29.78 in 10.0 mi South 17.3 mph 27.6 mph N/A   Overcast
5:56 AM 61.9 °F - 54.0 °F 75% 29.78 in 10.0 mi South 6.9 mph 16.1 mph N/A   Overcast
6:27 AM 62.6 °F - 53.6 °F 72% 29.77 in 10.0 mi SSW 15.0 mph 20.7 mph N/A   Mostly Cloudy
6:56 AM 63.0 °F - 54.9 °F 75% 29.77 in 10.0 mi SSW 17.3 mph - N/A   Mostly Cloudy
7:56 AM 63.9 °F - 54.9 °F 72% 29.75 in 10.0 mi SSW 10.4 mph 17.3 mph N/A   Mostly Cloudy
8:56 AM 63.9 °F - 54.9 °F 72% 29.72 in 10.0 mi South 13.8 mph 24.2 mph N/A   Mostly Cloudy
9:56 AM 64.9 °F - 54.9 °F 70% 29.70 in 10.0 mi South 12.7 mph 19.6 mph N/A   Mostly Cloudy
11:56 AM 66.9 °F - 54.9 °F 65% 29.65 in 10.0 mi South 16.1 mph 26.5 mph N/A   Mostly Cloudy
12:56 PM 68.0 °F - 54.9 °F 63% 29.62 in 10.0 mi South 18.4 mph 27.6 mph N/A   Overcast
1:56 PM 68.9 °F - 54.9 °F 61% 29.60 in 10.0 mi South 16.1 mph 26.5 mph N/A   Overcast
2:56 PM 70.9 °F - 55.9 °F 59% 29.52 in 10.0 mi South 18.4 mph 24.2 mph N/A   Mostly Cloudy
3:56 PM 72.0 °F - 56.8 °F 59% 29.48 in 10.0 mi South 24.2 mph 33.4 mph N/A   Mostly Cloudy
4:56 PM 72.9 °F - 56.8 °F 57% 29.45 in 10.0 mi South 25.3 mph 34.5 mph N/A   Scattered Clouds
5:56 PM 70.0 °F - 59.0 °F 68% 29.49 in 10.0 mi SW 17.3 mph 23.0 mph 0.00 in Rain Light Rain
6:06 PM 62.6 °F - 53.6 °F 72% 29.54 in 10.0 mi NW 18.4 mph 28.8 mph 0.00 in Rain Rain
6:11 PM 57.2 °F - 51.8 °F 82% 29.54 in 5.0 mi NNW 28.8 mph 41.4 mph 0.00 in Rain Rain
6:56 PM 50.0 °F - 47.8 °F 92% 29.63 in 3.0 mi NW 9.2 mph - 0.35 in Rain Light Rain
7:56 PM 48.9 °F - 43.9 °F 83% 29.65 in 10.0 mi West 10.4 mph - 0.04 in Rain Light Rain
8:22 PM 46.4 °F 41.9 °F 42.8 °F 87% 29.68 in 10.0 mi North 9.2 mph - 0.00 in Rain Light Rain
8:32 PM 44.6 °F 38.1 °F 42.8 °F 93% 29.69 in 10.0 mi NNW 13.8 mph 18.4 mph 0.00 in   Overcast
8:56 PM 43.9 °F 37.2 °F 41.0 °F 90% 29.71 in 10.0 mi NNW 13.8 mph 19.6 mph 0.00 in   Overcast
9:56 PM 43.0 °F 40.3 °F 39.9 °F 89% 29.75 in 10.0 mi North 4.6 mph - N/A   Overcast
10:34 PM 42.8 °F 41.1 °F 39.2 °F 87% 29.77 in 10.0 mi NNE 3.5 mph - N/A   Overcast
10:56 PM 41.9 °F 37.5 °F 36.9 °F 82% 29.79 in 10.0 mi North 6.9 mph - N/A   Overcast
11:40 PM 41.0 °F 38.0 °F 35.6 °F 81% 29.77 in 10.0 mi NNE 4.6 mph - N/A   Overcast
11:56 PM 41.0 °F - 36.0 °F 82% 29.79 in 10.0 mi Calm Calm - N/A   Overcast